Location: Arclight Observatory
(36.5667°N, 87.3333°W)
Time: 01:39:08
(UTC-05:00)

Daily predictions for brighter satellites

Satellite Brightness Start Highest point End
(mag) Time Altitude Azimuth Time Altitude Azimuth Time Altitude Azimuth
Meteor 1-11 Rocket 4.4 00:15:49 53° NW 00:15:49 53° NW 00:20:38 10° N
CZ-2C R/B 4.4 00:26:43 34° NNW 00:26:43 34° NNW 00:29:30 10° NNW
Cosmos 1697 Rocket 3.6 00:26:53 44° N 00:26:53 44° N 00:30:46 10° NNE
Cosmos 2297 Rocket 3.5 00:26:46 10° NNW 00:30:09 34° NW 00:30:09 34° NW
SL-16 R/B 4.0 00:48:32 23° ENE 00:48:32 23° ENE 00:51:00 10° NE
Cosmos 2322 Rocket 3.9 00:54:35 26° ENE 00:54:35 26° ENE 00:57:21 10° NE
Mayak 1.3 01:04:54 10° N 01:06:13 19° NNW 01:06:13 19° NNW
CZ-2C R/B 4.4 01:05:13 10° NNW 01:08:26 23° NW 01:08:26 23° NW
ATLAS 2AS CENTAUR R/B 4.3 01:21:12 25° E 01:21:12 25° E 01:26:44 10° NE
NOSS 3-1 (A) 4.0 01:26:49 53° N 01:26:49 53° N 01:31:56 10° NNE
CZ-4C R/B 3.1 01:21:44 10° NW 01:27:59 65° WNW 01:27:59 65° WNW
Cosmos 2263 Rocket 3.3 01:28:28 10° N 01:33:26 38° NE 01:33:26 38° NE
Nadezhda 1 Rocket 4.4 01:29:53 10° N 01:34:39 56° NNW 01:34:39 56° NNW
Cosmos 1709 Rocket 4.4 01:39:20 55° NE 01:39:20 55° NE 01:44:17 10° NNE
Cosmos 2360 Rocket 3.5 01:43:23 32° ENE 01:43:23 32° ENE 01:47:00 10° NE
Cosmos 1980 Rocket 3.8 01:43:36 26° NW 01:43:36 26° NW 01:47:47 10° N
COSMOS 2428 4.5 01:59:19 22° E 01:59:19 22° E 02:03:04 10° NE
Cosmos 2322 4.2 02:15:50 53° ENE 02:15:50 53° ENE 02:20:27 10° NNE
Cosmos 2333 Rocket 4.4 02:16:29 14° ESE 02:17:09 14° E 02:20:04 10° ENE
SL-16 R/B 3.9 02:15:50 22° ESE 02:18:53 33° ENE 02:24:21 10° N
Cosmos 2184 Rocket 4.3 02:18:46 54° E 02:18:54 54° E 02:24:53 10° NNE
Resurs 1-4 Rocket 3.6 02:17:17 10° NE 02:21:45 27° E 02:21:45 27° E
Cosmos 2181 Rocket 4.0 02:20:27 10° N 02:26:26 72° WNW 02:26:26 72° WNW
SL-16 R/B 3.4 02:30:24 31° NW 02:30:24 31° NW 02:35:02 10° N
DELTA 2 R/B (1) 3.9 02:32:19 63° NE 02:32:19 63° NE 02:37:04 10° ENE
Cosmos 2058 Rocket 4.3 02:36:39 38° ENE 02:36:39 38° ENE 02:40:04 10° NNE
Cosmos 2322 Rocket 3.6 02:36:23 28° NW 02:36:23 28° NW 02:41:06 10° N
USA 234 3.2 02:36:42 10° NE 02:43:14 78° NW 02:44:08 67° WSW
Cosmos 1302 Rocket 4.3 02:44:32 61° NNW 02:44:32 61° NNW 02:49:06 10° NNE
NOSS 2-3 (D) 4.4 02:45:16 54° NNW 02:45:16 54° NNW 02:49:47 10° NNE
ADEOS Rocket 2.7 02:40:30 10° NNE 02:46:32 85° WNW 02:46:32 85° WNW
Cosmos 2074 Rocket 3.8 02:48:28 79° SW 02:48:45 82° W 02:55:05 10° N
Cosmos 1726 Rocket 4.4 02:50:51 48° N 02:50:51 48° N 02:54:04 10° N
H-2A R/B 4.1 01:58:23 10° W 02:51:30 69° SSW 02:58:05 10° ESE
COBE Rocket 4.2 02:46:21 10° N 02:50:56 64° NNW 02:50:56 64° NNW
Meteor 1-15 Rocket 4.4 02:52:36 60° WNW 02:52:36 60° WNW 02:57:52 10° N
CZ-2D R/B 2.4 02:50:21 10° NNE 02:55:46 59° E 02:56:15 56° SE
BREEZE-M DEB (TANK) 3.8 02:56:16 41° ESE 02:56:16 41° ESE 03:05:21 10° NE
Cosmos 1607 4.3 02:50:50 10° NNW 02:57:15 65° ENE 03:02:38 15° SE
IRS-P3 4.4 02:53:31 10° N 02:58:27 56° WNW 02:58:27 56° WNW
NPP 3.9 02:56:24 10° N 03:01:29 57° WNW 03:01:29 57° WNW
OAO 3 Rocket 4.1 03:06:15 40° ESE 03:06:15 40° ESE 03:09:23 10° E
IRS-1D 3.5 03:00:19 10° NNE 03:05:17 70° ESE 03:05:27 69° ESE
Spot 4 Rocket 3.9 03:02:21 10° NNE 03:07:32 78° ESE 03:07:50 74° SE
MOS 1 Rocket 3.9 03:03:35 10° NNE 03:07:48 44° E 03:07:53 44° ESE
Cosmos 1503 Rocket 4.4 03:03:08 10° N 03:08:25 60° ENE 03:10:27 36° SE
ATLAS 2AS CENTAUR R/B 3.1 03:08:38 48° WSW 03:10:50 66° NW 03:18:56 10° NNE
Cosmos 2154 Rocket 4.0 03:12:07 53° S 03:13:42 81° E 03:20:00 10° N
Cosmos 1610 Rocket 4.3 03:12:54 64° SW 03:13:49 77° W 03:19:59 10° N
ADEOS 3.7 03:09:38 10° NNE 03:14:51 68° ESE 03:15:41 58° SSE
Meteor 2-19 Rocket 4.4 03:15:33 51° S 03:17:13 79° E 03:23:23 10° N
Cosmos 1992 Rocket 3.9 03:16:51 66° SSE 03:17:25 74° ESE 03:22:37 10° NNE
Cosmos 2263 Rocket 3.9 03:12:51 10° NW 03:15:05 20° WNW 03:15:05 20° WNW
Cosmos 2237 4.5 03:17:53 49° W 03:18:23 51° WNW 03:23:56 10° NNE
Cosmos 1271 Rocket 3.2 03:23:45 60° N 03:23:45 60° N 03:27:04 10° N
ARIANE 5 R/B 2.4 03:20:16 10° NNE 03:25:26 84° WNW 03:26:12 66° SSW
Cosmos 2360 Rocket 3.4 03:25:09 26° WNW 03:25:52 27° WNW 03:30:37 10° N
Cosmos 2219 Rocket 2.2 03:25:56 55° S 03:27:12 80° ESE 03:32:55 10° NNE
BREEZE-M DEB (TANK) 3.6 03:27:31 53° SSE 03:28:02 57° SE 03:37:54 10° NE
Cosmos 2228 3.6 03:29:37 45° NW 03:29:37 45° NW 03:33:09 10° N
Meteor 1-22 Rocket 4.4 03:27:27 42° SSE 03:29:26 73° E 03:35:22 10° NNE
Tiangong 1 3.8 03:31:28 12° E 03:31:28 12° E 03:31:49 10° E
Cosmos 1340 Rocket 2.7 03:30:55 10° N 03:34:52 77° E 03:34:59 76° ESE
Cosmos 1980 4.2 03:33:22 34° SSE 03:35:31 54° ESE 03:41:03 10° NNE
Intelsat 5-1 Rocket 4.4 03:37:15 15° SSE 03:37:15 15° SSE 03:39:45 10° SE
Cosmos 2237 Rocket 2.8 03:34:00 32° SSE 03:36:16 50° ESE 03:41:41 10° NNE
Cosmos 1844 Rocket 2.6 03:30:53 10° NNW 03:36:35 88° ENE 03:40:44 19° SSE
ATLAS 3B R/B 2.7 03:30:11 10° NNW 03:36:53 74° ENE 03:43:21 10° SE
Cosmos 2341 Rocket 4.0 03:36:31 39° S 03:39:10 88° WNW 03:45:33 10° N
COSMOS 2428 3.2 03:41:21 39° W 03:42:37 45° WNW 03:48:07 10° N
Aureole 2 Rocket 2.9 03:43:07 59° WNW 03:43:07 59° WNW 03:47:03 10° N
BREEZE-M DEB (TANK) 2.5 03:43:16 50° NNW 03:43:20 50° NNW 03:47:19 10° NE
SEDSat Delta rocket 3.8 03:44:26 33° SE 03:44:26 33° SE 03:47:13 10° ESE
UNKNOWN OBJECT B 2.7 03:41:15 10° NNE 03:45:08 85° ESE 03:45:32 71° S
Cosmos 972 4.2 03:44:52 51° SSW 03:46:06 86° WNW 03:51:00 10° NNE
Cosmos 972 Rocket 4.4 03:45:48 39° W 03:46:21 40° WNW 03:51:04 10° N
Iridium 4 Rocket 4.3 03:47:39 36° W 03:48:23 37° W 03:53:31 10° NNW
Cosmos 1932 4.5 03:42:57 10° NW 03:49:18 58° WSW 03:54:06 17° S
ADEOS II 3.5 03:49:02 10° NNE 03:53:45 33° E 03:58:26 10° SSE
Cosmos 2218 Rocket 4.4 03:50:23 17° S 03:55:13 63° E 04:01:29 10° NNE
Intercosmos 24 4.1 03:54:52 51° WSW 03:55:31 59° W 04:00:39 10° N
Lacrosse 5 rocket 2.2 03:52:24 10° NNW 03:56:19 49° NE 04:00:27 10° ESE
Cosmos 389 Rocket 3.1 03:56:54 42° WNW 03:56:54 42° WNW 04:00:01 10° N
Cosmos 2333 Rocket 2.2 03:58:30 37° SW 04:00:44 67° WNW 04:06:25 10° NNE
Resurs 1-4 Rocket 3.0 03:56:54 10° N 04:01:32 32° WNW 04:02:49 28° W
SL-16 R/B 3.1 04:00:56 32° SW 04:02:21 36° W 04:08:04 10° NNW
MOZ.5/SAFIR/RUBIN 5/SL-8 3.7 04:03:27 34° SSW 04:05:20 61° W 04:09:56 10° NNW
USA 161 3.0 04:03:28 16° SE 04:05:29 37° ENE 04:08:11 10° N
Cosmos 1758 3.5 04:03:48 30° S 04:05:41 69° E 04:09:43 10° NNE
Abrixas rocket 2.8 04:07:34 42° WNW 04:08:06 47° NNW 04:11:21 10° NE
USA 238 DEB 3.7 04:01:28 10° NNW 04:08:36 84° WSW 04:15:46 10° SSE
USA 238 3.7 04:01:34 10° NNW 04:08:43 85° WSW 04:15:53 10° SSE
Cosmos 1356 Rocket 3.3 04:05:38 10° N 04:09:39 79° E 04:12:37 17° SSE
Cosmos 1470 4.3 04:06:15 11° SSE 04:09:41 33° E 04:13:14 10° NNE
Cosmos 1953 2.6 04:07:48 25° S 04:10:02 66° E 04:14:00 10° NNE
Cosmos 2278 Rocket 2.6 04:05:46 10° NNW 04:11:24 66° ENE 04:17:01 10° SSE
Centaur D AC-29 2.7 04:13:54 27° SSW 04:15:56 35° S 04:30:04 10° ESE
DELTA 2 R/B (1) 3.9 04:13:05 12° WNW 04:18:14 66° N 04:23:46 10° E
Cosmos 968 Rocket 3.4 04:13:16 10° NNW 04:18:27 90° NNE 04:23:34 10° SSE
Cosmos 1812 Rocket 4.0 04:17:25 33° WSW 04:18:42 42° W 04:22:51 10° N
Lacrosse 5 1.9 04:18:39 28° SSW 04:21:23 79° SE 04:26:30 10° NE
Cosmos 1733 3.9 04:18:48 13° SSE 04:22:01 52° E 04:25:49 10° NNE
Meteor 1-24 Rocket 4.1 04:17:58 10° NNW 04:23:05 41° W 04:26:19 21° SSW
ERBS 3.6 04:22:15 25° WNW 04:23:19 31° NW 04:26:27 10° NNE
NOSS 3-2 (A) 4.4 04:15:55 10° NNW 04:23:31 69° NE 04:31:42 10° SE
CZ-2D R/B 4.2 04:20:18 10° N 04:24:13 37° WNW 04:25:40 28° WSW
Cosmos 1076 Rocket 4.3 04:21:26 10° N 04:25:36 52° E 04:29:46 10° SSE
SL-16 R/B 2.8 04:20:33 12° S 04:25:39 54° ESE 04:31:10 10° NNE
Cosmos 1674 3.0 04:22:33 10° N 04:26:24 67° E 04:30:14 10° SSE
NOSS 0 Rocket 4.2 04:23:00 24° SW 04:26:34 53° WNW 04:32:38 10° NNE
Meteor 2-21 Rocket 4.4 04:23:47 14° S 04:29:00 79° W 04:35:10 10° N
Cosmos 1959 Rocket 4.5 04:25:12 17° SSW 04:30:10 67° W 04:36:19 10° N
SL-8 Rocket 4.3 04:29:20 19° SSW 04:33:45 51° W 04:39:54 10° N
CZ-2D R/B 3.9 04:31:50 10° NNW 04:35:17 17° WNW 04:37:35 14° W
Cosmos 1818 3.7 04:32:23 22° SW 04:35:52 62° WNW 04:41:17 10° NNE
RESURS DK-1 3.3 04:32:21 12° S 04:36:02 46° ESE 04:40:02 10° NE
Cosmos 1844 4.2 04:32:17 10° NW 04:37:21 36° WSW 04:42:28 10° S
Atlas Centaur 2 2.7 04:36:38 20° SSW 04:38:20 26° SSE 04:42:08 10° ESE
CZ-4B R/B 3.1 04:34:46 10° NNE 04:38:44 73° ESE 04:42:54 10° S
Okean 3 Rocket 3.5 04:37:08 10° NNW 04:41:35 72° W 04:46:02 10° S
Okean O Rocket 1.9 04:38:03 10° NNE 04:42:31 69° ESE 04:46:56 10° S
NOSS 3-2 (C) 4.4 04:38:11 10° NNW 04:45:50 73° ENE 04:54:03 10° SE
Cosmos 1766 Rocket 4.2 04:41:34 10° N 04:46:00 58° E 04:50:20 10° SSE
OAO 3 Rocket 3.6 04:44:06 14° W 04:47:54 43° SSW 04:52:31 10° SE
Cosmos 724 4.3 04:43:03 10° NNW 04:48:59 86° ENE 04:54:46 10° SSE
IRS-1C Rocket 4.5 04:46:29 10° NNE 04:51:44 66° ESE 04:56:56 10° S
KORONAS-FOTON 3.8 04:50:26 10° N 04:54:23 79° W 04:58:18 10° S
Cosmos 1356 3.6 05:01:05 10° N 05:04:37 79° E 05:08:06 10° SSE
Tiangong 1 1.6 05:02:31 12° W 05:04:51 43° NNW 05:07:32 10° NE
Cosmos 1727 Rocket 4.1 05:01:25 10° NNW 05:07:24 54° W 05:13:21 10° SSW
PSLV R/B 3.8 05:04:58 10° N 05:09:16 55° WNW 05:13:32 10° SSW
NOSS 3-4 (A) 4.1 05:04:17 11° WSW 05:09:57 45° NW 05:16:09 10° NNE
NOSS 3-4 (C) 4.1 05:04:21 11° WSW 05:10:02 45° NW 05:16:14 10° NNE
Cosmos 2219 Rocket 4.1 05:08:47 10° W 05:11:49 15° NW 05:14:53 10° NNW
Cosmos 2297 3.7 05:06:57 10° NNW 05:12:37 89° WSW 05:18:16 10° SSE
Cosmos 1408 Rocket 3.6 05:11:13 10° NNW 05:15:39 67° W 05:20:00 10° S
SL-14 R/B 3.4 05:12:56 10° N 05:16:56 84° E 05:20:56 10° S
SeaSat 1 2.4 05:13:38 10° SSE 05:18:33 77° WSW 05:23:30 10° NNW
Cosmos 2237 Rocket 3.7 05:16:21 10° WSW 05:20:35 21° WNW 05:24:50 10° N
NOSS 2-2 (E) 3.4 05:17:50 10° SSW 05:21:48 85° NW 05:26:16 10° NNE
Iridium 2 3.9 05:21:43 10° SSW 05:25:25 52° W 05:29:11 10° N
ATLAS 3B R/B 3.9 05:22:49 10° WNW 05:26:44 17° WSW 05:30:36 10° SW
